Location: ??????????
(54.8537°N, 38.8755°E)
Time: 02:58:13
(UTC+00:00)

Vanguard 2 Rocket - Pass Details

Date: 17 September 2024
Orbit: 553 x 3298 km, 32.9° (Epoch: 10 October)

Event Time Altitude Azimuth Distance (km) Brightness Sun altitude
Rises 02:53:01 0° 259° (WSW) 5,687 - -2.0°
Exits shadow 02:53:45 - 257° (WSW) 5,570 10.2 -1.9°
Reaches altitude 10° 02:57:19 10° 247° (WSW) 5,073 10.1 -1.4°
Maximum altitude 03:08:46 25° 200° (SSW) 4,667 10.3 0.2°
Drops below altitude 10° 03:22:48 10° 155° (SSE) 6,243 11.5 2.3°
Sets 03:29:01 0° 144° (SE) 7,233 12.1 3.2°
